Regional Weather Roundup
Issued by NWS

Home | Current Version | Previous Version | Text Only | Print | Product List | Glossary On
Versions: 1 2 3 4 5 6 7 8 9 10 11 12 13 14 15 16 17 18 19 20 21 22 23 24 25 26 27 28 29 30 31 32 33 34 35 36 37 38 39 40 41 42 43 44 45 46 47 48 49 50
000
ASUS44 KFWD 290615
RWRTX
NORTH TEXAS HOURLY WEATHER ROUNDUP
NATIONAL WEATHER SERVICE FORT WORTH TX
100 AM CDT SAT AUG 29 2015

NOTE: "FAIR" INDICATES FEW OR NO CLOUDS BELOW 12,000 FEET WITH NO
SIGNIFICANT WEATHER AND/OR OBSTRUCTIONS TO VISIBILITY.

TXZ118-119-290700-
DALLAS/FORT WORTH METROPLEX

CITY           SKY/WX    TMP DP  RH WIND       PRES   REMARKS
DFW AIRPORT    MOCLDY    83  62  49 SE10      29.98S
6HR MIN TEMP:  83; 6HR MAX TEMP:  93;

DALLAS LOVE    CLOUDY    84  63  49 SE14      29.99R
6HR MIN TEMP:  84; 6HR MAX TEMP:  94;

FTW MEACHAM    FAIR      84  64  50 SE10      29.98S
6HR MIN TEMP:  84; 6HR MAX TEMP:  94;

DAL-EXECUTIVE  FAIR      81  64  56 SE8       29.99S
6HR MIN TEMP:  81; 6HR MAX TEMP:  91;

FTW-ALLIANCE   MOCLDY    83  64  52 SE9       29.98S
6HR MIN TEMP:  83; 6HR MAX TEMP:  93;

FTW-NAS-JRB    FAIR      84  63  49 SE10        N/A
6HR MIN TEMP:  84; 6HR MAX TEMP:  94;

FTW-SPINKS     FAIR      80  64  56 SE9       30.00S
6HR MIN TEMP:  78; 6HR MAX TEMP:  91;

ARLINGTON      FAIR      84  62  47 SE10      29.99R
6HR MIN TEMP:  83; 6HR MAX TEMP:  94;

GRAND PRAIRIE  FAIR      83  65  55 SE8       30.00S
6HR MIN TEMP:  83; 6HR MAX TEMP:  93;

ADDISON        FAIR      83  65  53 SE8       30.00S
6HR MIN TEMP:  83; 6HR MAX TEMP:  93;

MESQUITE       FAIR      79  63  57 SE7       29.99S
6HR MIN TEMP:  78; 6HR MAX TEMP:  90;

LANCASTER      FAIR      79  63  57 SE5       30.00S
6HR MIN TEMP:  79; 6HR MAX TEMP:  92;

$$

TXZ091>094-102>105-117-120-121-131>134-290700-
NORTH CENTRAL TEXAS

CITY           SKY/WX    TMP DP  RH WIND       PRES   REMARKS
SHRMAN/DENISON FAIR      82  66  58 SE15      29.99F
6HR MIN TEMP:  82; 6HR MAX TEMP:  92;

GAINESVILLE    FAIR      81  66  59 SE7       30.00S
6HR MIN TEMP:  81; 6HR MAX TEMP:  91;

BOWIE          CLOUDY    79  64  59 SE6       29.99S
6HR MIN TEMP:  78; 6HR MAX TEMP:  89;

BRIDGEPORT     FAIR      82  64  53 S10       29.99F
6HR MIN TEMP:  82; 6HR MAX TEMP:  94;

DECATUR        FAIR      82  61  49 SE9       29.99F
6HR MIN TEMP:  82; 6HR MAX TEMP:  92;

DENTON         FAIR      83  64  52 SE10      29.97F
6HR MIN TEMP:  83; 6HR MAX TEMP:  92;

MCKINNEY       FAIR      81  64  56 S7        29.99S
6HR MIN TEMP:  81; 6HR MAX TEMP:  90;

GREENVILLE     FAIR      73  63  68 SE6       29.99F
ROCKWALL       FAIR      79  64  60 SE7       29.98S
6HR MIN TEMP:  79; 6HR MAX TEMP:  90;

TERRELL        FAIR      77  65  66 SE6       29.99F
6HR MIN TEMP:  77; 6HR MAX TEMP:  89;

WAXAHACHIE     FAIR      79  65  62 SE6       30.01S
6HR MIN TEMP:  78; 6HR MAX TEMP:  91;

CLEBURNE         N/A     81  64  57 SE8       30.01S
GRANBURY       FAIR      82  63  53 SE7       30.00S
6HR MIN TEMP:  82; 6HR MAX TEMP:  94;

$$

TXZ083>090-098>101-113>116-127>130-139>142-154-155-290700-
WESTERN NORTH TEXAS

CITY           SKY/WX    TMP DP  RH WIND       PRES   REMARKS
WICHITA FALLS  FAIR      83  62  49 S10       29.96R
6HR MIN TEMP:  82; 6HR MAX TEMP:  90; 6HR PCP: TRACE;

WF-KICKAPOO    FAIR      85  60  43 SE10      29.97R
6HR MIN TEMP:  82; 6HR MAX TEMP:  91;

VERNON         FAIR      76  63  62 CALM      29.99R
6HR MIN TEMP:  75; 6HR MAX TEMP: 101; 6HR PCP:  0.01;

ABILENE        FAIR      80  57  45 S15       30.00F
6HR MIN TEMP:  80; 6HR MAX TEMP:  96;

ABILENE-DYESS  FAIR      82  56  41 S13       29.99S
6HR MIN TEMP:  82; 6HR MAX TEMP:  94;

BRECKENRIDGE   FAIR      83  58  42 SE12      29.98S
6HR MIN TEMP:  83; 6HR MAX TEMP:  94;

GRAHAM         FAIR      82  62  50 SE3       29.99R
6HR MIN TEMP:  82; 6HR MAX TEMP:  92;

MINERAL WELLS  FAIR      79  63  57 SE7       29.98R
6HR MIN TEMP:  77; 6HR MAX TEMP:  90;

STEPHENVILLE   FAIR      78  61  56 S5        30.04S
6HR MIN TEMP:  78; 6HR MAX TEMP:  90;

COMANCHE       FAIR      78  58  48 S6        30.02S
6HR MIN TEMP:  78; 6HR MAX TEMP:  94;

BROWNWOOD      CLOUDY    81  55  41 SE7       30.01S
COLEMAN        FAIR      80  58  46 S6        30.02R
6HR MIN TEMP:  80; 6HR MAX TEMP:  97;

BRADY          CLEAR     82  55  39 S6        30.02S
$$

TXZ143>147-156>162-174-175-290700-
CENTRAL TEXAS

CITY           SKY/WX    TMP DP  RH WIND       PRES   REMARKS
WACO           FAIR      80  64  58 S10       29.99R
6HR MIN TEMP:  79; 6HR MAX TEMP:  94;

WACO-MCGREGOR  FAIR      78  64  61 S7        30.00R
6HR MIN TEMP:  78; 6HR MAX TEMP:  94;

HILLSBORO      FAIR      78  60  54 SE6       30.00S
6HR MIN TEMP:  78; 6HR MAX TEMP:  92;

CORSICANA      FAIR      78  65  63 SE5       30.01S
6HR MIN TEMP:  77; 6HR MAX TEMP:  91;

MEXIA          FAIR      77  65  67 E9        29.99S
6HR MIN TEMP:  77; 6HR MAX TEMP:  92;

HEARNE         FAIR      75  66  73 SE6       30.01S
6HR MIN TEMP:  74; 6HR MAX TEMP:  92;

CAMERON        FAIR      78  66  66 S12       29.99S
6HR MIN TEMP:  78; 6HR MAX TEMP:  92;

TEMPLE         FAIR      75  61  60 S8        30.01R
6HR MIN TEMP:  75; 6HR MAX TEMP:  91;

KILLEEN        FAIR      77  62  59 S8        30.01R
6HR MIN TEMP:  75; 6HR MAX TEMP:  93;

KILLEEN-SKYLRK FAIR      79  61  53 S8        30.00R
6HR MIN TEMP:  79; 6HR MAX TEMP:  91;

FORT HOOD      FAIR      78  63  59 S8        30.00R
6HR MIN TEMP:  78; 6HR MAX TEMP:  92;

GATESVILLE     FAIR      79  63  57 CALM      30.03R
HAMILTON       FAIR      76  60  56 MISG      30.03R
6HR MIN TEMP:  76; 6HR MAX TEMP:  93;

$$

TXZ095>097-106>112-122>126-135>138-148>153-164>167-290700-
EAST TEXAS

CITY           SKY/WX    TMP DP  RH WIND       PRES   REMARKS
PARIS          FAIR      75  57  53 SE8       30.01S
6HR MIN TEMP:  75; 6HR MAX TEMP:  88;

SULPHUR SPRNGS FAIR      77  62  59 SE5       30.02S
6HR MIN TEMP:  77; 6HR MAX TEMP:  89;

MOUNT PLEASANT FAIR      70  63  78 CALM      30.02F
6HR MIN TEMP:  70; 6HR MAX TEMP:  83;

GILMER         FAIR      73  64  73 CALM      30.00S
6HR MIN TEMP:  70; 6HR MAX TEMP:  85;

MINEOLA        FAIR      70  68  94 CALM      30.01S
TYLER          FAIR      77  63  61 SE9       30.01R
6HR MIN TEMP:  76; 6HR MAX TEMP:  87;

LONGVIEW       FAIR      71  64  78 SE8       30.00S
6HR MIN TEMP:  70; 6HR MAX TEMP:  85;

MARSHALL       FAIR      71  67  88 CALM      30.03S
6HR MIN TEMP:  70; 6HR MAX TEMP:  89;

ATHENS         FAIR      73  64  73 S3        29.99S
PALESTINE      FAIR      77  64  63 SE3       30.02S
JACKSONVILLE   FAIR      78  62  58 S7        30.04S
HENDERSON      FAIR      70  65  84 CALM      30.03S
6HR MIN TEMP:  68; 6HR MAX TEMP:  85;

CENTER         FAIR      69  66  90 CALM      30.01F
6HR MIN TEMP:  69; 6HR MAX TEMP:  86;

NACOGDOCHES    FAIR      66  64  94 CALM      30.02S
6HR MIN TEMP:  66; 6HR MAX TEMP:  88;

LUFKIN         FAIR      70  64  81 SE3       30.02R
6HR MIN TEMP:  69; 6HR MAX TEMP:  88;

$$

SUPPLEMENTAL OBSERVATIONS (CENTRAL)

CITY           SKY/WX    TMP DP  RH WIND       PRES   REMARKS
PAT MAYSE LAKE   N/A     77  59  53 E10         N/A
GREENVILLE       N/A     73  63  68 SE2         N/A
CEDAR HILL       N/A     81  63  54 SE7         N/A
LAKE LIMESTONE   N/A     75  63  64 S1          N/A


USA.gov is the U.S. government's official web portal to all federal, state and local government web resources and services.